This is the latest recevied weather packets stored in our database for station/object N9GKE-1. If no packets are shown the sender has not sent any weather packets the latest 1 day(s).
| Time | Temp. | Humidity | Pressure | Rain* | Wind** | Luminosity | Snow |
|---|---|---|---|---|---|---|---|
| 1778011895 | 9.44° C | 85% | 1009.3 hPa | 0 mm | 0.45 m/s, 24° | - | - |
| 1778011750 | 9.44° C | 84% | 1009.3 hPa | 0 mm | 0 m/s | - | - |
| 1778011295 | 10° C | 82% | 1009.3 hPa | 0 mm | 0 m/s | - | - |
| 1778011151 | 10° C | 82% | 1009.3 hPa | 0 mm | 0.45 m/s, 310° | - | - |
| 1778010695 | 10° C | 81% | 1009.4 hPa | 0 mm | 0.89 m/s, 318° | - | - |
| 1778010551 | 10° C | 81% | 1009.4 hPa | 0 mm | 0.45 m/s, 18° | - | - |
| 1778010096 | 10.56° C | 79% | 1009.4 hPa | 0 mm | 0.89 m/s, 14° | - | - |
| 1778009951 | 10.56° C | 79% | 1009.3 hPa | 0 mm | 0.45 m/s, 20° | - | - |
| 1778009494 | 10.56° C | 77% | 1009.2 hPa | 0 mm | 1.34 m/s, 329° | - | - |
| 1778009349 | 10.56° C | 78% | 1009.1 hPa | 0 mm | 0.45 m/s, 322° | - | - |
| 1778008895 | 10.56° C | 78% | 1009 hPa | 0 mm | 0 m/s | - | - |
| 1778008750 | 10.56° C | 77% | 1009 hPa | 0 mm | 0.89 m/s, 352° | - | - |
| 1778008296 | 10.56° C | 77% | 1008.9 hPa | 0 mm | 0.45 m/s, 2° | - | - |
| 1778008150 | 10.56° C | 77% | 1008.7 hPa | 0 mm | 0.45 m/s, 301° | - | - |
| 1778007694 | 10.56° C | 76% | 1008.8 hPa | 0 mm | 0 m/s | - | - |
| 1778007550 | 10.56° C | 76% | 1008.7 hPa | 0 mm | 0.45 m/s, 39° | - | - |
| 1778007095 | 10.56° C | 77% | 1008.7 hPa | 0 mm | 0.45 m/s, 22° | - | - |
| 1778006950 | 11.11° C | 78% | 1008.8 hPa | 0 mm | 0.45 m/s, 50° | - | - |
| 1778006495 | 11.11° C | 78% | 1008.7 hPa | 0 mm | 0.45 m/s, 57° | - | - |
| 1778006353 | 10.56° C | 79% | 1008.6 hPa | 0 mm | 0.45 m/s, 50° | - | - |
| 1778005896 | 10.56° C | 78% | 1008.6 hPa | 0 mm | 1.34 m/s, 27° | - | - |
| 1778005751 | 10.56° C | 77% | 1008.5 hPa | 0 mm | 1.34 m/s, 22° | - | - |
| 1778005295 | 10.56° C | 78% | 1008.5 hPa | 0 mm | 2.24 m/s, 67° | - | - |
| 1778005150 | 10.56° C | 78% | 1008.6 hPa | 0 mm | 0.45 m/s, 50° | - | - |
| 1778004694 | 10.56° C | 81% | 1008.5 hPa | 0 mm | 0.45 m/s, 20° | - | - |
* Rain latest hour (hover to see other rain measurements)
** Current wind speed in m/s (hover to see current wind gust speed)